Terminal Aerodrome Forecast
Issued by NWS Brownsville, TX

Home | Current Version | Previous Version | Text Only | Print | Product List | Glossary On
Versions: 1 2 3 4 5 6 7 8 9 10 11 12 13 14 15 16 17 18
000
FTUS44 KBRO 181700
TAFMFE
TAF
KMFE 181721Z 1818/1918 04012KT P6SM BKN025
     FM182200 07011KT P6SM SCT025
     FM190800 10006KT P6SM BKN015
     FM191400 10006KT P6SM SCT020=

USA.gov is the U.S. government's official web portal to all federal, state and local government web resources and services.